Time,TemperatureF,DewpointF,PressureIn,WindDirection,WindDirectionDegrees,WindSpeedMPH,WindSpeedGustMPH,Humidity,HourlyPrecipIn,Conditions,Clouds,dailyrainin,SolarRadiationWatts/m^2,SoftwareType,DateUTC
2013-02-21 00:01:00,69.0,60.0,30.07,NE,47,6.0,7.0,72,0.00,,,0.00,0.000000,,2013-02-21 10:01:00,
2013-02-21 00:11:00,69.0,60.0,30.07,NE,47,6.0,7.0,72,0.00,,,0.00,0.000000,,2013-02-21 10:11:00,
2013-02-21 00:31:00,70.0,61.0,30.07,NE,49,5.0,7.0,73,0.00,,,0.00,0.000000,,2013-02-21 10:31:00,
2013-02-21 00:41:00,70.0,61.0,30.07,NE,49,5.0,7.0,73,0.00,,,0.00,0.000000,,2013-02-21 10:41:00,
2013-02-21 00:51:00,70.0,61.0,30.07,NE,49,5.0,7.0,73,0.00,,,0.00,0.000000,,2013-02-21 10:51:00,
2013-02-21 01:01:00,70.0,61.0,30.07,NE,49,5.0,7.0,73,0.00,,,0.00,0.000000,,2013-02-21 11:01:00,
2013-02-21 01:11:00,70.0,61.0,30.07,NE,49,5.0,7.0,73,0.00,,,0.00,0.000000,,2013-02-21 11:11:00,
2013-02-21 01:41:00,70.0,60.0,30.05,ENE,72,5.0,7.0,71,0.00,,,0.00,0.000000,,2013-02-21 11:41:00,
2013-02-21 01:51:00,70.0,60.0,30.05,ENE,72,5.0,7.0,71,0.00,,,0.00,0.000000,,2013-02-21 11:51:00,
2013-02-21 02:01:00,70.0,60.0,30.05,ENE,72,5.0,7.0,71,0.00,,,0.00,0.000000,,2013-02-21 12:01:00,
2013-02-21 02:11:00,70.0,60.0,30.05,ENE,72,5.0,7.0,71,0.00,,,0.00,0.000000,,2013-02-21 12:11:00,
2013-02-21 02:43:00,70.0,60.0,30.03,ENE,71,5.0,7.0,71,0.00,,,0.00,0.000000,,2013-02-21 12:43:00,
2013-02-21 02:52:00,70.0,60.0,30.03,ENE,71,5.0,7.0,71,0.00,,,0.00,0.000000,,2013-02-21 12:52:00,
2013-02-21 03:01:00,70.0,60.0,30.03,ENE,71,5.0,7.0,71,0.00,,,0.00,0.000000,,2013-02-21 13:01:00,
2013-02-21 03:12:00,70.0,60.0,30.03,ENE,71,5.0,7.0,71,0.00,,,0.00,0.000000,,2013-02-21 13:12:00,
2013-02-21 03:42:00,69.0,59.0,30.03,ENE,58,5.0,7.0,70,0.00,,,0.00,0.000000,,2013-02-21 13:42:00,
2013-02-21 03:52:00,69.0,59.0,30.03,ENE,58,5.0,7.0,70,0.00,,,0.00,0.000000,,2013-02-21 13:52:00,
2013-02-21 04:02:00,69.0,59.0,30.03,ENE,58,5.0,7.0,70,0.00,,,0.00,0.000000,,2013-02-21 14:02:00,
2013-02-21 04:11:00,69.0,59.0,30.03,ENE,58,5.0,7.0,70,0.00,,,0.00,0.000000,,2013-02-21 14:11:00,
2013-02-21 04:42:00,68.0,57.0,30.02,ENE,73,4.0,7.0,69,0.00,,,0.00,0.000000,,2013-02-21 14:42:00,
2013-02-21 04:52:00,68.0,57.0,30.02,ENE,73,4.0,7.0,69,0.00,,,0.00,0.000000,,2013-02-21 14:52:00,
2013-02-21 05:01:00,68.0,57.0,30.02,ENE,73,4.0,7.0,69,0.00,,,0.00,0.000000,,2013-02-21 15:01:00,
2013-02-21 05:12:00,68.0,57.0,30.02,ENE,73,4.0,7.0,69,0.00,,,0.00,0.000000,,2013-02-21 15:12:00,
2013-02-21 05:32:00,68.0,57.0,30.03,ENE,59,5.0,8.0,67,0.00,,,0.00,0.000000,,2013-02-21 15:32:00,
2013-02-21 05:42:00,68.0,57.0,30.03,ENE,59,5.0,8.0,67,0.00,,,0.00,0.000000,,2013-02-21 15:42:00,
2013-02-21 05:52:00,68.0,57.0,30.03,ENE,59,5.0,8.0,67,0.00,,,0.00,0.000000,,2013-02-21 15:52:00,
2013-02-21 06:01:00,68.0,57.0,30.03,ENE,59,5.0,8.0,67,0.00,,,0.00,0.000000,,2013-02-21 16:01:00,
2013-02-21 06:12:00,68.0,57.0,30.03,ENE,59,5.0,8.0,67,0.00,,,0.00,0.000000,,2013-02-21 16:12:00,
2013-02-21 06:42:00,68.0,56.0,30.05,ENE,76,5.0,7.0,66,0.00,,,0.00,0.000000,,2013-02-21 16:42:00,
2013-02-21 06:52:00,68.0,56.0,30.05,ENE,76,5.0,7.0,66,0.00,,,0.00,0.000000,,2013-02-21 16:52:00,
2013-02-21 07:01:00,68.0,56.0,30.05,ENE,76,5.0,7.0,66,0.00,,,0.00,0.000000,,2013-02-21 17:01:00,
2013-02-21 07:11:00,68.0,56.0,30.05,ENE,76,5.0,7.0,66,0.00,,,0.00,0.000000,,2013-02-21 17:11:00,
2013-02-21 07:42:00,67.0,56.0,30.06,ENE,58,5.0,7.0,67,0.00,,,0.00,8.000000,,2013-02-21 17:42:00,
2013-02-21 07:52:00,67.0,56.0,30.06,ENE,58,5.0,7.0,67,0.00,,,0.00,8.000000,,2013-02-21 17:52:00,
2013-02-21 08:01:00,67.0,56.0,30.06,ENE,58,5.0,7.0,67,0.00,,,0.00,8.000000,,2013-02-21 18:01:00,
2013-02-21 08:11:00,67.0,56.0,30.06,ENE,58,5.0,7.0,67,0.00,,,0.00,8.000000,,2013-02-21 18:11:00,
2013-02-21 08:42:00,76.0,58.0,30.08,ENE,63,5.0,8.0,54,0.00,,,0.00,125.000000,,2013-02-21 18:42:00,
2013-02-21 08:52:00,76.0,58.0,30.08,ENE,63,5.0,8.0,54,0.00,,,0.00,125.000000,,2013-02-21 18:52:00,
2013-02-21 09:01:00,76.0,58.0,30.08,ENE,63,5.0,8.0,54,0.00,,,0.00,125.000000,,2013-02-21 19:01:00,
2013-02-21 09:11:00,76.0,58.0,30.08,ENE,63,5.0,8.0,54,0.00,,,0.00,125.000000,,2013-02-21 19:11:00,
2013-02-21 09:42:00,79.0,62.0,30.08,SSW,194,5.0,9.0,56,0.00,,,0.00,391.000000,,2013-02-21 19:42:00,
2013-02-21 09:52:00,79.0,62.0,30.08,SSW,194,5.0,9.0,56,0.00,,,0.00,391.000000,,2013-02-21 19:52:00,
2013-02-21 10:01:00,79.0,62.0,30.08,SSW,194,5.0,9.0,56,0.00,,,0.00,391.000000,,2013-02-21 20:01:00,
2013-02-21 10:11:00,79.0,62.0,30.08,SSW,194,5.0,9.0,56,0.00,,,0.00,391.000000,,2013-02-21 20:11:00,
2013-02-21 10:42:00,80.0,65.0,30.08,SW,234,8.0,11.0,60,0.00,,,0.00,641.000000,,2013-02-21 20:42:00,
2013-02-21 10:52:00,80.0,65.0,30.08,SW,234,8.0,11.0,60,0.00,,,0.00,641.000000,,2013-02-21 20:52:00,
2013-02-21 11:02:00,80.0,65.0,30.08,SW,234,8.0,11.0,60,0.00,,,0.00,641.000000,,2013-02-21 21:02:00,
2013-02-21 11:11:00,80.0,65.0,30.08,SW,234,8.0,11.0,60,0.00,,,0.00,641.000000,,2013-02-21 21:11:00,
2013-02-21 11:42:00,80.0,65.0,30.06,SW,232,8.0,11.0,61,0.00,,,-99.99,859.000000,,2013-02-21 21:42:00,
2013-02-21 11:52:00,80.0,65.0,30.06,SW,232,8.0,11.0,61,0.00,,,-99.99,859.000000,,2013-02-21 21:52:00,
2013-02-21 12:01:00,80.0,65.0,30.06,SW,232,8.0,11.0,61,0.00,,,-99.99,859.000000,,2013-02-21 22:01:00,
2013-02-21 12:11:00,80.0,65.0,30.06,SW,232,8.0,11.0,61,0.00,,,-99.99,859.000000,,2013-02-21 22:11:00,
2013-02-21 12:42:00,81.0,66.0,30.05,SW,233,9.0,13.0,60,0.00,,,0.00,1009.000000,,2013-02-21 22:42:00,
2013-02-21 12:52:00,81.0,66.0,30.05,SW,233,9.0,13.0,60,0.00,,,0.00,1009.000000,,2013-02-21 22:52:00,
2013-02-21 13:01:00,81.0,66.0,30.05,SW,233,9.0,13.0,60,0.00,,,0.00,1009.000000,,2013-02-21 23:01:00,
2013-02-21 13:11:00,81.0,66.0,30.05,SW,233,9.0,13.0,60,0.00,,,0.00,1009.000000,,2013-02-21 23:11:00,
2013-02-21 13:42:00,81.0,65.0,30.02,WSW,249,8.0,11.0,58,0.00,,,0.00,1013.000000,,2013-02-21 23:42:00,
2013-02-21 13:52:00,81.0,65.0,30.02,WSW,249,8.0,11.0,58,0.00,,,0.00,1013.000000,,2013-02-21 23:52:00,
2013-02-21 14:01:00,81.0,65.0,30.02,WSW,249,8.0,11.0,58,0.00,,,0.00,1013.000000,,2013-02-22 00:01:00,
2013-02-21 14:11:00,81.0,65.0,30.02,WSW,249,8.0,11.0,58,0.00,,,0.00,1013.000000,,2013-02-22 00:11:00,
2013-02-21 14:42:00,81.0,64.0,30.01,WSW,256,7.0,11.0,56,0.00,,,0.00,829.000000,,2013-02-22 00:42:00,
2013-02-21 14:52:00,81.0,64.0,30.01,WSW,256,7.0,11.0,56,0.00,,,0.00,829.000000,,2013-02-22 00:52:00,
2013-02-21 15:01:00,81.0,64.0,30.01,WSW,256,7.0,11.0,56,0.00,,,0.00,829.000000,,2013-02-22 01:01:00,
2013-02-21 15:11:00,81.0,64.0,30.01,WSW,256,7.0,11.0,56,0.00,,,0.00,829.000000,,2013-02-22 01:11:00,
2013-02-21 15:42:00,78.0,64.0,30.00,WSW,239,6.0,10.0,62,0.00,,,0.00,494.000000,,2013-02-22 01:42:00,
2013-02-21 15:52:00,78.0,64.0,30.00,WSW,239,6.0,10.0,62,0.00,,,0.00,494.000000,,2013-02-22 01:52:00,
2013-02-21 16:01:00,78.0,64.0,30.00,WSW,239,6.0,10.0,62,0.00,,,0.00,494.000000,,2013-02-22 02:01:00,
2013-02-21 16:11:00,78.0,64.0,30.00,WSW,239,6.0,10.0,62,0.00,,,0.00,494.000000,,2013-02-22 02:11:00,
2013-02-21 16:32:00,78.0,64.0,30.01,South,183,6.0,12.0,62,0.00,,,0.00,268.000000,,2013-02-22 02:32:00,
2013-02-21 16:42:00,78.0,64.0,30.01,South,183,6.0,12.0,62,0.00,,,0.00,268.000000,,2013-02-22 02:42:00,
2013-02-21 16:52:00,78.0,64.0,30.01,South,183,6.0,12.0,62,0.00,,,0.00,268.000000,,2013-02-22 02:52:00,
2013-02-21 17:01:00,78.0,64.0,30.01,South,183,6.0,12.0,62,0.00,,,0.00,268.000000,,2013-02-22 03:01:00,
2013-02-21 17:11:00,78.0,64.0,30.01,South,183,6.0,12.0,62,0.00,,,0.00,268.000000,,2013-02-22 03:11:00,
2013-02-21 17:32:00,77.0,63.0,30.02,South,177,6.0,10.0,62,0.00,,,0.00,179.000000,,2013-02-22 03:32:00,
2013-02-21 17:42:00,77.0,63.0,30.02,South,177,6.0,10.0,62,0.00,,,0.00,179.000000,,2013-02-22 03:42:00,
2013-02-21 17:52:00,77.0,63.0,30.02,South,177,6.0,10.0,62,0.00,,,0.00,179.000000,,2013-02-22 03:52:00,
2013-02-21 18:01:00,77.0,63.0,30.02,South,177,6.0,10.0,62,0.00,,,0.00,179.000000,,2013-02-22 04:01:00,
2013-02-21 18:11:00,77.0,63.0,30.02,South,177,6.0,10.0,62,0.00,,,0.00,179.000000,,2013-02-22 04:11:00,
2013-02-21 18:32:00,76.0,63.0,30.03,SSE,157,6.0,11.0,65,0.00,,,0.00,54.000000,,2013-02-22 04:32:00,
2013-02-21 18:42:00,76.0,63.0,30.03,SSE,157,6.0,11.0,65,0.00,,,0.00,54.000000,,2013-02-22 04:42:00,
2013-02-21 18:52:00,76.0,63.0,30.03,SSE,157,6.0,11.0,65,0.00,,,0.00,54.000000,,2013-02-22 04:52:00,
2013-02-21 19:01:00,76.0,63.0,30.03,SSE,157,6.0,11.0,65,0.00,,,0.00,54.000000,,2013-02-22 05:01:00,
2013-02-21 19:11:00,76.0,63.0,30.03,SSE,157,6.0,11.0,65,0.00,,,0.00,54.000000,,2013-02-22 05:11:00,
2013-02-21 19:32:00,75.0,65.0,30.04,SSE,167,2.0,7.0,70,0.00,,,0.00,1.000000,,2013-02-22 05:32:00,
2013-02-21 19:42:00,75.0,65.0,30.04,SSE,167,2.0,7.0,70,0.00,,,0.00,1.000000,,2013-02-22 05:42:00,
2013-02-21 19:52:00,75.0,65.0,30.04,SSE,167,2.0,7.0,70,0.00,,,0.00,1.000000,,2013-02-22 05:52:00,
2013-02-21 20:01:00,75.0,65.0,30.04,SSE,167,2.0,7.0,70,0.00,,,0.00,1.000000,,2013-02-22 06:01:00,
2013-02-21 20:11:00,75.0,65.0,30.04,SSE,167,2.0,7.0,70,0.00,,,0.00,1.000000,,2013-02-22 06:11:00,
2013-02-21 20:32:00,74.0,64.0,30.06,East,79,4.0,5.0,70,0.00,,,0.00,0.000000,,2013-02-22 06:32:00,
2013-02-21 20:42:00,74.0,64.0,30.06,East,79,4.0,5.0,70,0.00,,,0.00,0.000000,,2013-02-22 06:42:00,
2013-02-21 20:52:00,74.0,64.0,30.06,East,79,4.0,5.0,70,0.00,,,0.00,0.000000,,2013-02-22 06:52:00,
2013-02-21 21:01:00,74.0,64.0,30.06,East,79,4.0,5.0,70,0.00,,,0.00,0.000000,,2013-02-22 07:01:00,
2013-02-21 21:11:00,74.0,64.0,30.06,East,79,4.0,5.0,70,0.00,,,0.00,0.000000,,2013-02-22 07:11:00,
2013-02-21 21:42:00,74.0,64.0,30.07,NE,44,1.0,6.0,71,0.00,,,0.00,0.000000,,2013-02-22 07:42:00,
2013-02-21 21:52:00,74.0,64.0,30.07,NE,44,1.0,6.0,71,0.00,,,0.00,0.000000,,2013-02-22 07:52:00,
2013-02-21 22:01:00,74.0,64.0,30.07,NE,44,1.0,6.0,71,0.00,,,0.00,0.000000,,2013-02-22 08:01:00,
2013-02-21 22:11:00,74.0,64.0,30.07,NE,44,1.0,6.0,71,0.00,,,0.00,0.000000,,2013-02-22 08:11:00,
2013-02-21 22:42:00,73.0,63.0,30.06,ESE,114,4.0,6.0,71,0.00,,,0.00,0.000000,,2013-02-22 08:42:00,
2013-02-21 22:52:00,73.0,63.0,30.06,ESE,114,4.0,6.0,71,0.00,,,0.00,0.000000,,2013-02-22 08:52:00,
2013-02-21 23:03:00,73.0,63.0,30.06,ESE,114,4.0,6.0,71,0.00,,,0.00,0.000000,,2013-02-22 09:03:00,
2013-02-21 23:11:00,73.0,63.0,30.06,ESE,114,4.0,6.0,71,0.00,,,0.00,0.000000,,2013-02-22 09:11:00,
2013-02-21 23:32:00,73.0,63.0,30.07,NE,39,3.0,7.0,72,0.00,,,-99.99,0.000000,,2013-02-22 09:32:00,
2013-02-21 23:42:00,73.0,63.0,30.07,NE,39,3.0,7.0,72,0.00,,,-99.99,0.000000,,2013-02-22 09:42:00,
2013-02-21 23:52:00,73.0,63.0,30.07,NE,39,3.0,7.0,72,0.00,,,-99.99,0.000000,,2013-02-22 09:52:00,